Lexington, NE

4:05 PM CST on December 06, 2016 (GMT -0600)
Kelly

Weather History for KLXN - July, 2013

Change the Weather History Date:

Monday, July 1, 2013

  Actual Average Record
Temperature  
Mean Temperature 64 °F -  
Max Temperature 79 °F 83 °F 95 °F (2000)
Min Temperature 50 °F 59 °F 50 °F (2013)
Growing Degree Days 14 (Base 50)    
Moisture  
Dew Point 49 °F    
Average Humidity 62    
Maximum Humidity 95    
Minimum Humidity 24    
Precipitation  
Precipitation 0.00 in - - ()
Sea Level Pressure  
Sea Level Pressure 30.24 in    
Wind  
Wind Speed 4 mph (NNE)    
Max Wind Speed 12 mph    
Max Gust Speed 17 mph    
Visibility 9 miles    
Events      
Averages and records for this station are not official NWS values.
T = Trace of Precipitation, MM = Missing Value Source: NWS Daily Summary

Daily Weather History Graph

Daily Weather History Graph

Search for Another Location

Airport or City:

Trip Planner

Search our weather history database for the weather conditions in past years. The results will help you decide how hot, cold, wet, or windy it might be!

Date:

Astronomy

Jul. 01, 2013 Rise Set
Actual Time 6:11 AM CDT 9:14 PM CDT
Civil Twilight 5:38 AM CDT 9:47 PM CDT
Nautical Twilight 4:55 AM CDT 10:29 PM CDT
Astronomical Twilight 4:06 AM CDT 11:19 PM CDT
Moon 1:43 AM CDT (7/1) 3:30 PM CDT (7/1)
Length of Visible Light 16h 09m
Length of Day
15h 02m
Waning Crescent, 35% of the Moon is Illuminated
Jul 1
Waning Crescent
Jul 8
New
Jul 15
First Quarter
Jul 22
Full
Jul 29
Last Quarter

Hourly Weather History & Observations

Time (CDT) Temp. Dew Point Humidity Pressure Visibility Wind Dir Wind Speed Gust Speed Precip Events Conditions
12:15 AM 59.0 °F 53.2 °F 81% 30.20 in 10.0 mi East 4.6 mph - N/A   Clear
12:35 AM 58.5 °F 52.9 °F 82% 30.20 in 10.0 mi East 3.5 mph - N/A   Clear
12:55 AM 59.0 °F 53.1 °F 81% 30.21 in 10.0 mi Calm Calm - N/A   Clear
1:15 AM 59.0 °F 52.7 °F 80% 30.21 in 10.0 mi ENE 4.6 mph - N/A   Clear
1:35 AM 56.3 °F 52.0 °F 85% 30.21 in 10.0 mi East 4.6 mph - N/A   Clear
1:55 AM 55.0 °F 51.4 °F 88% 30.22 in 10.0 mi Calm Calm - N/A   Clear
2:15 AM 55.4 °F 52.0 °F 88% 30.22 in 10.0 mi Calm Calm - N/A   Clear
2:35 AM 54.0 °F 51.1 °F 90% 30.22 in 10.0 mi Calm Calm - N/A   Scattered Clouds
2:55 AM 53.8 °F 50.9 °F 90% 30.23 in 10.0 mi WNW 5.8 mph - N/A   Clear
3:15 AM 54.0 °F 51.1 °F 90% 30.23 in 7.0 mi Calm Calm - N/A   Scattered Clouds
3:35 AM 52.9 °F 50.7 °F 92% 30.23 in 7.0 mi NW 4.6 mph - N/A   Clear
3:55 AM 52.7 °F 50.2 °F 91% 30.23 in 7.0 mi NW 3.5 mph - N/A   Clear
4:15 AM 52.7 °F 50.2 °F 91% 30.24 in 7.0 mi WNW 4.6 mph - N/A   Clear
4:35 AM 52.2 °F 50.0 °F 92% 30.23 in 5.0 mi Calm Calm - N/A   Clear
4:55 AM 52.0 °F 50.0 °F 93% 30.24 in 5.0 mi NW 3.5 mph - N/A   Clear
5:15 AM 51.8 °F 50.0 °F 94% 30.24 in 5.0 mi North 3.5 mph - N/A   Clear
5:35 AM 50.9 °F 49.1 °F 94% 30.24 in 7.0 mi Calm Calm - N/A   Clear
5:55 AM 50.9 °F 49.3 °F 94% 30.24 in 5.0 mi Calm Calm - N/A   Clear
6:15 AM 50.7 °F 48.4 °F 92% 30.25 in 5.0 mi WNW 4.6 mph - N/A   Clear
6:35 AM 50.4 °F 48.9 °F 95% 30.26 in 5.0 mi West 5.8 mph - N/A   Clear
6:55 AM 51.1 °F 49.3 °F 94% 30.26 in 4.0 mi WNW 4.6 mph - N/A   Clear
7:15 AM 52.7 °F 50.9 °F 94% 30.27 in 4.0 mi Calm Calm - N/A   Clear
7:35 AM 54.9 °F 52.3 °F 91% 30.27 in 4.0 mi WNW 3.5 mph - N/A   Clear
7:55 AM 56.5 °F 52.9 °F 88% 30.27 in 5.0 mi WNW 3.5 mph - N/A   Clear
8:15 AM 59.0 °F 53.6 °F 82% 30.28 in 7.0 mi WNW 3.5 mph - N/A   Clear
8:35 AM 61.0 °F 52.9 °F 75% 30.28 in 7.0 mi WNW 4.6 mph - N/A   Clear
8:55 AM 62.8 °F 53.1 °F 71% 30.29 in 7.0 mi NW 3.5 mph - N/A   Clear
9:15 AM 63.3 °F 52.9 °F 69% 30.29 in 10.0 mi Calm Calm - N/A   Clear
9:35 AM 65.5 °F 54.3 °F 67% 30.29 in 10.0 mi North 3.5 mph - N/A   Clear
9:55 AM 67.1 °F 54.1 °F 63% 30.29 in 10.0 mi NNE 3.5 mph - N/A   Clear
10:15 AM 68.7 °F 54.3 °F 60% 30.28 in 10.0 mi North 3.5 mph - N/A   Clear
10:35 AM 70.2 °F 52.7 °F 54% 30.28 in 10.0 mi NE 4.6 mph - N/A   Clear
10:55 AM 72.1 °F 51.1 °F 47% 30.28 in 10.0 mi East 5.8 mph - N/A   Clear
11:15 AM 72.5 °F 48.7 °F 43% 30.27 in 10.0 mi North 3.5 mph - N/A   Clear
11:35 AM 73.6 °F 48.9 °F 42% 30.28 in 10.0 mi NE 6.9 mph - N/A   Clear
11:55 AM 73.8 °F 48.0 °F 40% 30.28 in 10.0 mi North 3.5 mph - N/A   Scattered Clouds
12:15 PM 74.3 °F 48.2 °F 40% 30.28 in 10.0 mi ESE 8.1 mph - N/A   Scattered Clouds
12:35 PM 75.4 °F 46.4 °F 36% 30.27 in 10.0 mi NNE 6.9 mph - N/A   Scattered Clouds
12:55 PM 74.5 °F 47.1 °F 38% 30.27 in 10.0 mi NE 9.2 mph - N/A   Clear
1:15 PM 75.7 °F 46.2 °F 35% 30.26 in 10.0 mi East 10.4 mph - N/A   Clear
1:35 PM 77.2 °F 46.8 °F 34% 30.26 in 10.0 mi ENE 9.2 mph - N/A   Clear
1:55 PM 76.8 °F 44.4 °F 32% 30.26 in 10.0 mi North 8.1 mph - N/A   Clear
2:15 PM 77.5 °F 45.1 °F 32% 30.25 in 10.0 mi NNE 10.4 mph - N/A   Clear
2:35 PM 78.8 °F 43.9 °F 29% 30.25 in 10.0 mi ENE 5.8 mph - N/A   Clear
2:55 PM 78.6 °F 44.8 °F 30% 30.24 in 10.0 mi NE 6.9 mph 17.3 mph N/A   Clear
3:15 PM 79.2 °F 42.3 °F 27% 30.24 in 10.0 mi NE 11.5 mph - N/A   Clear
3:35 PM 78.8 °F 41.2 °F 26% 30.24 in 10.0 mi ENE 11.5 mph - N/A   Clear
3:55 PM 79.2 °F 40.1 °F 25% 30.24 in 10.0 mi NE 5.8 mph - N/A   Clear
4:15 PM 79.2 °F 39.0 °F 24% 30.24 in 10.0 mi NE 6.9 mph - N/A   Clear
4:35 PM 79.5 °F 40.8 °F 25% 30.23 in 10.0 mi NNE 6.9 mph - N/A   Clear
4:55 PM 78.3 °F 42.3 °F 28% 30.23 in 10.0 mi NNE 11.5 mph - N/A   Clear
5:15 PM 77.9 °F 41.2 °F 27% 30.22 in 10.0 mi ENE 8.1 mph - N/A   Clear
5:35 PM 76.8 °F 41.9 °F 29% 30.23 in 10.0 mi ENE 3.5 mph - N/A   Clear
5:55 PM 78.6 °F 43.3 °F 29% 30.22 in 10.0 mi ENE 5.8 mph - N/A   Clear
6:15 PM 78.4 °F 43.5 °F 29% 30.22 in 10.0 mi NE 3.5 mph - N/A   Clear
6:35 PM 78.1 °F 44.1 °F 30% 30.22 in 10.0 mi ENE 5.8 mph - N/A   Scattered Clouds
6:55 PM 77.4 °F 46.0 °F 33% 30.21 in 10.0 mi ENE 9.2 mph - N/A   Scattered Clouds
7:15 PM 77.5 °F 46.2 °F 33% 30.22 in 10.0 mi East 8.1 mph - N/A   Clear
7:35 PM 76.1 °F 48.9 °F 38% 30.22 in 10.0 mi ENE 8.1 mph - N/A   Clear
7:55 PM 75.2 °F 48.7 °F 39% 30.22 in 10.0 mi ENE 6.9 mph - N/A   Clear
8:15 PM 73.8 °F 51.6 °F 46% 30.22 in 10.0 mi ENE 4.6 mph - N/A   Clear
8:35 PM 71.8 °F 54.5 °F 54% 30.22 in 10.0 mi East 5.8 mph - N/A   Clear
8:55 PM 69.1 °F 54.5 °F 60% 30.22 in 10.0 mi ENE 3.5 mph - N/A   Clear
9:15 PM 67.1 °F 54.5 °F 64% 30.22 in 10.0 mi Calm Calm - N/A   Clear
9:35 PM 66.6 °F 54.0 °F 64% 30.22 in 10.0 mi Calm Calm - N/A   Clear
9:55 PM 63.9 °F 53.4 °F 69% 30.22 in 10.0 mi East 3.5 mph - N/A   Clear
10:15 PM 62.6 °F 53.6 °F 72% 30.24 in 10.0 mi Calm Calm - N/A   Clear
10:35 PM 62.1 °F 53.6 °F 74% 30.24 in 10.0 mi Calm Calm - N/A   Clear
10:55 PM 60.4 °F 55.4 °F 83% 30.24 in 10.0 mi Calm Calm - N/A   Clear
11:15 PM 60.8 °F 54.7 °F 80% 30.24 in 10.0 mi Calm Calm - N/A   Clear
11:35 PM 60.8 °F 54.1 °F 79% 30.24 in 10.0 mi Calm Calm - N/A   Clear
11:55 PM 58.5 °F 54.7 °F 87% 30.24 in 10.0 mi Calm Calm - N/A   Clear